CHINASAT 3B

Last updated on Fri Jul 10 2026 00:03:07 GMT+0000 (Coordinated Universal Time)

1 64062U 25106A 26190.20167700 -.00000031 00000+0 00000+0 0 9996 2 64062 0.0352 168.3394 0003761 332.9286 25.7848 1.00273207 4284
UTC large
Height (km)
Speed (km/s)
/
Latitude / Longitude
Inclination (degrees)
Orbital Period (minutes)
Azimuth
Elevation
Range (km)
Doppler Factor

Next 0 passes for location: London (51.5072 / 0.1276)

No passes found over London.
CHINASAT 3B